Voltar ao catálogo

STARLINK-37826

AtivoComunicaçõesVLEO
NORAD 100050·PAYLOAD·🇺🇸 United States

Lançado Jul 14, 2026 de Cape Canaveral Space Force Station

Loading…

Próximas Passagens (próximas 24 horas)

TLE

AtualizadoSource: Space-Track

Época: Sep 14, 2026, 01:46 UTC

1 A0050U 26161Y   26257.07396689  .00019163  00000-0  57693-3 0  9994
2 A0050  53.1608  27.7651 0001893  76.6681 283.4533 15.34394770  9621

Acompanhe STARLINK-37826 em tempo real com AllMySat

Download on the App Store